Butler, GA

1:07 AM EST on December 06, 2019 (GMT -0500)
Butler

Weather History for K6A1 - October, 2019

Change the Weather History Date:

Saturday, October 26, 2019

  Actual Average (KMCN) Record (KMCN)
Temperature  
Mean Temperature 76 °F -  
Max Temperature 82 °F 76 °F 88 °F (1919)
Min Temperature 69 °F 48 °F 29 °F (1965)
Cooling Degree Days 10    
Growing Degree Days 26 (Base 50)    
Moisture  
Dew Point 67 °F    
Average Humidity 80    
Maximum Humidity 91    
Minimum Humidity 60    
Precipitation  
Precipitation 0.00 in - - ()
Sea Level Pressure  
Sea Level Pressure 29.94 in    
Wind  
Wind Speed 8 mph ()    
Max Wind Speed 14 mph    
Max Gust Speed 20 mph    
Visibility 10.0 miles    
Events      
Averages and records for this station are not official NWS values.
T = Trace of Precipitation, MM = Missing Value Source: Averaged Metar Reports

Daily Weather History Graph

Daily Weather History Graph

Search for Another Location

Airport or City:

Astronomy

Oct. 26, 2019 Rise Set
Actual Time 7:49 AM EDT 6:52 PM EDT
Civil Twilight 7:24 AM EDT 7:17 PM EDT
Nautical Twilight 6:55 AM EDT 7:46 PM EDT
Astronomical Twilight 6:26 AM EDT 8:14 PM EDT
Moon 5:54 AM EDT (10/26) 6:18 PM EDT (10/26)
Length of Visible Light 11h 53m
Length of Day
11h 02m
Waning Crescent, 3% of the Moon is Illuminated
Oct 26
Waning Crescent
Oct 27
New
Nov 4
First Quarter
Nov 12
Full
Nov 19
Last Quarter

Hourly Weather History & Observations

Time (EDT) Temp. Heat Index Dew Point Humidity Pressure Visibility Wind Dir Wind Speed Gust Speed Precip Events Conditions
12:15 AM 70.7 °F - 66.9 °F 88% 30.08 in 10.0 mi SE 6.9 mph - N/A   Unknown
12:35 AM 70.2 °F - 66.6 °F 88% 30.07 in 10.0 mi SE 8.1 mph - N/A   Unknown
12:55 AM 70.0 °F - 66.6 °F 89% 30.07 in 10.0 mi SE 8.1 mph - N/A   Unknown
1:15 AM 69.8 °F - 66.4 °F 89% 30.06 in 10.0 mi SE 8.1 mph - N/A   Unknown
1:35 AM 70.0 °F - 66.6 °F 89% 30.05 in 10.0 mi SE 8.1 mph - N/A   Unknown
1:55 AM 69.8 °F - 66.4 °F 89% 30.05 in 10.0 mi SE 9.2 mph - N/A   Unknown
2:35 AM 69.8 °F - 66.4 °F 89% 30.04 in 10.0 mi SE 6.9 mph - N/A   Unknown
2:55 AM 69.8 °F - 66.6 °F 89% 30.04 in 10.0 mi SE 6.9 mph - N/A   Unknown
3:15 AM 69.8 °F - 66.7 °F 90% 30.04 in 10.0 mi SE 6.9 mph - N/A   Unknown
3:35 AM 69.8 °F - 66.7 °F 90% 30.03 in 10.0 mi SE 8.1 mph - N/A   Unknown
3:55 AM 69.8 °F - 67.1 °F 91% 30.02 in 10.0 mi SE 10.4 mph - N/A   Unknown
4:15 AM 70.0 °F - 67.1 °F 91% 30.01 in 10.0 mi SE 8.1 mph - N/A   Unknown
4:35 AM 70.2 °F - 67.1 °F 90% 30.00 in 10.0 mi SE 6.9 mph - N/A   Unknown
4:55 AM 70.2 °F - 67.1 °F 90% 30.00 in 10.0 mi SE 9.2 mph 16.1 mph N/A   Unknown
5:15 AM 70.0 °F - 67.1 °F 91% 30.00 in 10.0 mi SE 9.2 mph - N/A   Unknown
5:35 AM 69.8 °F - 66.7 °F 90% 30.00 in 10.0 mi SE 9.2 mph - N/A   Unknown
5:55 AM 69.8 °F - 66.6 °F 89% 30.00 in 10.0 mi SE 9.2 mph - N/A   Unknown
6:15 AM 69.6 °F - 66.6 °F 90% 30.00 in 10.0 mi SE 10.4 mph - N/A   Unknown
6:35 AM 69.4 °F - 66.6 °F 91% 29.99 in 10.0 mi ESE 8.1 mph - N/A   Unknown
6:55 AM 69.6 °F - 66.6 °F 90% 30.00 in 10.0 mi SE 9.2 mph - N/A   Unknown
7:15 AM 69.6 °F - 66.4 °F 89% 30.00 in 10.0 mi SE 8.1 mph - N/A   Unknown
7:35 AM 69.8 °F - 66.4 °F 89% 29.99 in 10.0 mi ESE 9.2 mph - N/A   Unknown
7:55 AM 69.8 °F - 66.2 °F 88% 29.99 in 10.0 mi SE 9.2 mph - N/A   Unknown
8:15 AM 69.8 °F - 66.2 °F 88% 29.99 in 10.0 mi ESE 6.9 mph - N/A   Unknown
8:35 AM 69.8 °F - 66.2 °F 88% 29.99 in 10.0 mi SE 8.1 mph - N/A   Unknown
8:55 AM 70.0 °F - 66.2 °F 88% 29.98 in 10.0 mi ESE 9.2 mph - N/A   Unknown
9:15 AM 70.2 °F - 66.2 °F 87% 29.98 in 10.0 mi SE 8.1 mph 18.4 mph N/A   Unknown
9:35 AM 70.7 °F - 66.2 °F 86% 29.99 in 10.0 mi ESE 10.4 mph 17.3 mph N/A   Unknown
10:15 AM 70.7 °F - 65.8 °F 85% 29.99 in 10.0 mi SE 11.5 mph 16.1 mph N/A   Unknown
10:35 AM 70.9 °F - 66.0 °F 85% 30.00 in 10.0 mi SSE 9.2 mph 16.1 mph N/A   Unknown
10:55 AM 71.6 °F - 66.2 °F 83% 29.99 in 10.0 mi SE 9.2 mph - N/A   Unknown
11:15 AM 71.8 °F - 66.2 °F 83% 29.98 in 10.0 mi SE 11.5 mph 17.3 mph N/A   Unknown
11:35 AM 72.9 °F - 66.4 °F 80% 29.98 in 10.0 mi SE 13.8 mph 17.3 mph N/A   Unknown
11:55 AM 73.6 °F - 66.6 °F 79% 29.97 in 10.0 mi SE 9.2 mph - N/A   Unknown
12:15 PM 74.5 °F - 66.9 °F 77% 29.96 in 10.0 mi SSE 9.2 mph 16.1 mph N/A   Unknown
12:35 PM 75.0 °F - 67.1 °F 76% 29.95 in 10.0 mi SE 11.5 mph 17.3 mph N/A   Unknown
12:55 PM 76.5 °F - 67.5 °F 74% 29.95 in 10.0 mi SSE 9.2 mph 19.6 mph N/A   Unknown
1:15 PM 77.0 °F - 67.5 °F 72% 29.94 in 10.0 mi SSE 9.2 mph - N/A   Unknown
1:35 PM 77.4 °F - 68.0 °F 73% 29.92 in 10.0 mi SSE 10.4 mph 16.1 mph N/A   Unknown
1:55 PM 77.9 °F - 67.1 °F 69% 29.90 in 10.0 mi SSE 12.7 mph 18.4 mph N/A   Unknown
2:15 PM 79.3 °F - 67.1 °F 66% 29.90 in 10.0 mi SSE 10.4 mph 17.3 mph N/A   Unknown
2:35 PM 79.7 °F - 67.3 °F 66% 29.88 in 10.0 mi SSE 11.5 mph 17.3 mph N/A   Unknown
2:55 PM 79.9 °F - 67.1 °F 65% 29.87 in 10.0 mi SSE 8.1 mph 18.4 mph N/A   Unknown
3:15 PM 80.8 °F 82.9 °F 66.4 °F 61% 29.86 in 10.0 mi South 11.5 mph 19.6 mph N/A   Unknown
3:35 PM 80.8 °F 83.1 °F 66.6 °F 62% 29.86 in 10.0 mi South 10.4 mph - N/A   Unknown
3:55 PM 82.0 °F 84.5 °F 67.1 °F 60% 29.85 in 10.0 mi SSE 13.8 mph - N/A   Unknown
4:15 PM 81.3 °F 83.8 °F 67.3 °F 62% 29.85 in 10.0 mi South 11.5 mph 16.1 mph N/A   Unknown
4:35 PM 80.4 °F 83.0 °F 67.6 °F 65% 29.85 in 10.0 mi SSE 8.1 mph - N/A   Unknown
4:55 PM 80.2 °F 82.8 °F 68.0 °F 66% 29.85 in 10.0 mi SSE 6.9 mph - N/A   Unknown
5:15 PM 80.1 °F 82.7 °F 68.0 °F 67% 29.85 in 10.0 mi South 8.1 mph - N/A   Unknown
5:35 PM 79.7 °F - 68.2 °F 68% 29.85 in 10.0 mi South 6.9 mph - N/A   Unknown
5:55 PM 79.2 °F - 68.5 °F 70% 29.84 in 10.0 mi SSE 5.8 mph - N/A   Unknown
6:15 PM 78.4 °F - 68.9 °F 72% 29.84 in 10.0 mi SSE 5.8 mph - N/A   Unknown
6:35 PM 77.9 °F - 68.7 °F 73% 29.84 in 10.0 mi South 6.9 mph - N/A   Unknown
6:55 PM 77.2 °F - 68.9 °F 76% 29.85 in 10.0 mi South 5.8 mph - N/A   Unknown
7:15 PM 76.5 °F - 68.9 °F 77% 29.85 in 10.0 mi SSE 4.6 mph - N/A   Unknown
7:35 PM 76.8 °F - 68.9 °F 76% 29.84 in 10.0 mi SSE 6.9 mph - N/A   Unknown
7:55 PM 76.6 °F - 68.9 °F 77% 29.84 in 10.0 mi South 9.2 mph - N/A   Unknown
8:15 PM 76.8 °F - 68.9 °F 76% 29.84 in 10.0 mi South 9.2 mph - N/A   Unknown
8:35 PM 77.0 °F - 68.9 °F 76% 29.84 in 10.0 mi South 10.4 mph - N/A   Unknown
8:55 PM 76.5 °F - 68.9 °F 77% 29.84 in 10.0 mi South 9.2 mph - N/A   Unknown
9:15 PM 76.1 °F - 68.9 °F 78% 29.84 in 10.0 mi South 10.4 mph - N/A   Unknown
9:35 PM 75.7 °F - 68.9 °F 79% 29.84 in 10.0 mi South 10.4 mph - N/A   Unknown
9:55 PM 75.6 °F - 69.1 °F 80% 29.85 in 10.0 mi South 9.2 mph - N/A   Unknown
10:15 PM 75.4 °F - 69.4 °F 82% 29.86 in 10.0 mi South 6.9 mph - N/A   Unknown
10:35 PM 75.2 °F - 69.6 °F 83% 29.87 in 10.0 mi South 10.4 mph - N/A   Unknown
10:55 PM 75.2 °F - 69.8 °F 83% 29.87 in 10.0 mi South 6.9 mph - N/A   Unknown
11:15 PM 75.2 °F - 70.0 °F 84% 29.87 in 10.0 mi South 10.4 mph 16.1 mph N/A   Unknown
11:35 PM 75.2 °F - 70.3 °F 85% 29.86 in 10.0 mi South 10.4 mph 17.3 mph N/A   Unknown
11:55 PM 75.0 °F - 70.5 °F 86% 29.86 in 10.0 mi South 9.2 mph 16.1 mph N/A   Unknown